OPTUS C1

Last updated on Thu Oct 30 2025 00:02:47 GMT+0000 (Coordinated Universal Time)

1 27831U 03028B 25302.21654646 -.00000137 00000+0 00000+0 0 9990 2 27831 6.3071 72.1963 0005831 146.4615 52.8249 1.00274137 50743
UTC large
Height (km)
Speed (km/s)
/
Latitude / Longitude
Inclination (degrees)
Orbital Period (minutes)
Azimuth
Elevation
Range (km)
Doppler Factor

Next 0 passes for location: London (51.5072 / 0.1276)

Sorry there are no passes over London.